Wind_Speed
38 40 40 41 41 42 42 40 38 38 39 40 41 42 43 42 41 40 40 40 40 41 40 39 38 38 38 39 38 38 37 36 36 37 37 38 38 38 38 39 39 39 38 39 39 40 41 43 45 46 47 47 46 45 44 44 43 42 42 41 41 40 39 39 39 39 38 37 36 35 34 34 34 35 36 36 36 36 36 36 37 36 35 34 33 33
39 40 40 40 39 39 40 38 36 36 39 42 43 43 43 42 41 40 38 39 40 39 38 36 35 35 36 38 38 38 37 37 36 37 37 37 37 37 38 38 38 38 39 40 41 42 44 45 46 47 46 45 44 43 42 41 40 40 39 39 39 39 38 38 39 38 37 36 34 33 33 34 35 36 37 37 36 36 36 36 36 36 35 34 33 32
40 41 40 38 36 36 37 38 38 39 41 43 44 44 43 42 40 38 37 38 39 38 35 34 34 35 36 38 39 39 38 36 35 35 36 36 36 37 37 38 39 39 40 41 43 44 45 46 46 45 44 43 42 41 40 39 38 38 38 38 38 38 38 38 38 38 37 35 34 33 34 35 36 36 36 36 36 35 35 35 36 36 35 34 32 31
39 40 39 37 36 36 37 39 41 43 43 44 44 43 42 39 37 37 38 38 38 36 34 33 34 36 38 40 41 40 38 35 35 35 35 36 36 37 38 39 40 41 42 43 43 44 44 44 44 43 42 41 40 39 39 38 37 37 38 38 38 38 37 37 37 37 36 35 34 34 35 35 34 33 33 33 33 33 33 33 34 35 35 33 32 31
37 38 39 38 38 38 40 42 43 43 43 42 41 39 38 36 36 38 39 39 36 34 33 34 37 39 41 42 41 39 37 35 35 35 36 37 38 39 40 41 41 42 42 42 42 43 43 43 42 41 41 40 39 38 38 37 37 37 37 37 37 37 36 36 36 36 35 35 35 35 34 33 32 31 31 31 31 31 30 30 31 32 33 32 31 30
37 37 38 38 38 40 42 42 42 41 40 40 38 35 34 35 38 39 39 36 32 31 34 38 40 41 40 39 37 36 35 35 36 37 38 39 40 41 41 41 41 40 40 40 41 41 42 42 41 40 40 39 38 37 37 37 37 37 36 36 36 35 35 35 34 34 34 35 35 34 33 32 31 31 32 32 32 31 29 28 29 30 31 31 30 29
38 39 39 41 41 41 41 40 39 39 38 36 34 33 35 38 40 39 36 32 31 33 37 40 40 38 36 34 34 34 35 36 37 39 40 40 40 40 40 39 39 38 39 39 40 41 41 41 40 39 38 38 38 37 37 37 36 36 36 36 36 36 35 34 34 34 35 35 35 34 33 32 32 32 32 32 32 31 30 29 29 29 30 30 30 29
39 40 41 41 40 40 38 38 37 36 34 32 32 34 39 42 40 37 33 32 34 37 39 38 37 36 35 35 35 36 36 37 38 38 39 39 39 38 38 38 37 37 38 39 40 40 40 40 39 38 38 37 37 37 36 36 36 36 37 37 37 37 36 36 36 36 37 36 35 34 34 32 32 32 32 32 32 31 31 30 29 29 30 29 29 29
40 41 41 39 37 36 36 35 32 30 30 32 35 38 41 41 38 35 34 36 38 38 37 37 37 37 37 37 37 36 36 36 37 37 37 37 37 37 37 37 37 37 38 38 39 39 39 39 38 38 37 37 36 36 36 36 37 37 37 37 37 37 36 37 37 37 36 35 34 33 33 32 32 32 32 31 31 31 30 30 29 29 28 28 27 27
41 40 39 36 34 32 30 30 30 30 32 36 40 41 40 37 35 35 37 40 40 39 38 37 38 39 39 38 37 35 35 36 36 37 38 37 37 37 36 36 36 36 37 37 38 38 38 38 37 37 36 36 36 37 37 37 37 37 36 36 35 35 35 35 35 34 33 32 32 32 32 32 32 32 31 30 30 30 30 30 29 29 28 27 27 25
39 35 31 29 28 27 28 30 32 35 38 41 42 40 36 33 32 34 38 40 41 41 40 38 38 38 38 37 36 35 35 36 38 39 39 38 37 36 34 34 34 34 35 36 37 37 37 37 37 37 37 37 37 38 37 37 36 35 34 33 33 32 32 32 31 31 31 30 31 31 31 31 31 31 30 30 30 30 30 30 30 30 29 28 27 26
31 26 25 26 27 29 31 33 36 38 39 39 37 35 34 33 34 35 37 40 41 41 40 39 38 37 36 36 35 35 37 38 38 39 39 38 36 34 32 32 33 34 35 36 38 38 38 38 38 38 38 38 38 37 35 34 33 33 32 32 31 31 30 29 29 29 29 30 30 30 30 30 29 29 30 31 31 32 32 31 31 30 29 29 29 29
24 25 28 31 32 33 35 37 38 39 38 36 34 34 35 36 37 36 36 38 39 39 38 38 38 38 37 36 35 35 37 38 38 38 37 36 34 32 31 32 33 35 36 37 38 39 40 40 40 40 39 38 36 35 33 32 32 32 32 31 31 30 29 29 29 29 29 29 29 29 28 28 28 29 30 32 33 34 33 32 31 30 29 29 29 30
26 29 31 34 36 37 38 39 40 38 36 35 35 35 36 37 37 36 36 37 38 37 37 37 38 38 37 36 35 36 36 36 36 35 34 33 31 30 30 32 34 35 37 38 40 42 43 42 41 40 38 37 35 33 32 32 32 32 32 32 31 31 30 30 30 30 30 30 29 28 28 28 29 31 32 34 36 36 35 33 32 30 29 29 29 29
29 31 33 36 38 39 39 38 38 38 37 36 36 36 37 37 36 35 35 36 37 38 38 37 38 38 37 36 35 34 34 34 32 31 31 31 31 31 31 33 35 37 38 38 40 42 42 40 39 39 38 37 35 33 32 32 32 32 32 32 33 32 32 32 32 32 32 31 30 30 31 32 33 34 35 37 37 37 35 33 32 31 30 29 29 29
31 32 34 36 38 38 38 38 37 37 37 36 36 35 36 36 35 35 36 37 38 38 38 38 38 38 38 37 35 32 30 28 26 27 29 32 34 34 33 34 36 37 38 38 38 39 39 39 38 38 38 37 35 33 31 31 31 32 33 34 34 34 33 33 33 33 32 32 33 34 35 36 36 37 38 38 37 35 34 32 31 31 30 30 30 31
32 33 34 36 37 38 38 38 37 36 35 35 35 34 34 34 35 36 36 37 38 38 36 33 33 34 37 38 35 30 24 23 24 28 31 35 37 36 34 33 35 37 38 37 37 36 37 37 38 38 37 36 34 31 30 30 32 33 34 35 36 35 35 34 35 35 35 36 37 38 39 38 38 39 39 37 35 33 31 31 31 31 31 31 32 32
33 34 34 36 37 39 39 38 36 35 35 35 35 35 35 35 36 37 38 39 39 38 36 34 32 32 35 34 33 30 26 26 29 32 36 38 39 38 34 33 34 35 36 36 35 35 36 38 37 36 35 33 31 29 30 32 34 36 37 38 37 37 36 37 37 38 39 40 40 40 39 39 38 38 37 35 33 32 31 31 31 31 32 32 34 35
33 34 35 36 38 38 37 36 35 34 34 35 35 36 37 38 39 39 41 40 39 36 34 32 32 34 35 35 34 33 30 30 33 35 36 39 39 37 34 32 32 33 34 35 36 37 38 38 37 36 33 30 29 31 34 36 37 38 38 37 37 37 38 38 39 39 39 39 39 39 39 38 37 35 34 34 33 32 32 32 32 32 33 33 34 35
35 36 36 36 36 36 36 35 34 34 35 36 37 39 41 42 42 42 41 39 36 32 31 33 35 36 37 37 36 35 33 33 34 35 36 37 37 35 32 30 31 33 35 36 36 37 37 36 34 32 31 32 34 36 37 37 37 37 37 37 38 38 38 39 39 38 38 37 37 37 37 35 34 33 33 33 33 33 33 33 33 32 32 33 33 33
36 37 37 35 34 34 34 35 36 37 38 40 42 43 42 42 41 39 36 34 33 34 35 36 37 38 37 36 36 36 35 33 33 34 35 35 35 33 31 30 32 34 36 37 37 36 34 31 30 31 33 35 36 37 38 38 38 38 38 38 38 38 38 38 37 36 36 36 35 34 33 32 32 33 33 33 33 33 32 32 31 31 31 31 31 32
37 38 37 36 35 35 37 40 41 41 42 42 42 42 41 39 38 37 36 36 37 38 39 39 39 38 37 36 36 36 35 33 32 33 34 34 34 34 32 32 33 35 35 35 33 31 29 30 32 34 35 36 37 38 39 39 38 38 38 37 37 36 36 35 34 34 34 34 33 32 32 32 33 33 33 32 32 31 31 31 31 31 31 31 31 31
37 38 37 36 36 37 39 40 41 41 41 41 40 38 38 38 38 38 39 39 40 40 40 40 39 38 37 36 35 34 33 32 31 31 32 33 34 34 33 32 32 33 33 31 30 30 31 32 33 34 35 36 37 38 38 38 37 36 36 35 34 34 34 33 33 33 32 31 31 31 32 33 33 33 32 32 32 31 31 31 31 31 31 31 32 32
36 37 37 36 37 37 37 38 38 39 39 39 39 39 39 39 39 39 40 40 40 39 39 37 36 36 36 34 33 32 31 30 29 29 30 32 33 34 33 32 30 30 30 30 31 33 34 34 35 35 36 37 37 37 37 35 34 34 33 32 32 32 32 32 32 31 30 30 31 32 34 34 34 34 33 33 33 32 32 32 32 32 32 32 33 34
35 35 35 35 34 34 34 36 37 38 38 37 37 37 37 38 38 39 40 39 37 36 35 35 36 35 33 32 31 31 30 29 28 28 30 32 34 34 32 30 28 29 32 33 34 34 34 35 35 35 36 36 36 35 34 33 32 30 30 29 29 29 29 29 28 28 29 31 33 34 35 35 35 34 34 33 33 33 33 33 33 33 33 34 34 35
32 31 30 31 31 33 35 36 36 36 35 35 35 36 37 38 39 39 38 36 33 33 34 34 34 33 32 30 30 30 30 29 29 29 31 32 33 33 31 29 29 31 34 35 34 33 33 34 34 35 35 36 35 34 32 31 30 29 28 27 27 27 26 26 27 29 31 34 35 36 35 35 34 33 33 32 32 33 33 33 33 34 34 34 35 36
29 29 30 32 34 36 37 37 36 34 33 32 32 33 34 35 36 36 34 33 32 33 33 33 32 32 31 30 30 29 30 29 29 29 31 31 32 32 31 30 30 32 34 34 33 32 33 33 34 35 35 35 34 32 31 30 29 29 28 27 26 26 27 28 31 33 34 35 35 34 34 33 32 31 31 31 32 32 33 33 33 34 34 34 35 37
30 32 34 36 37 37 37 36 35 33 32 32 31 31 31 32 33 33 33 33 33 34 33 32 31 31 30 31 31 31 31 30 29 28 28 28 28 28 30 30 30 31 33 34 34 33 32 32 32 33 33 31 31 30 30 30 30 30 29 28 28 28 30 32 34 35 35 34 33 32 32 32 31 31 31 32 32 33 33 33 33 33 34 34 35 37
35 37 38 38 38 37 36 35 34 33 33 32 31 30 30 29 30 32 33 34 35 34 33 32 31 31 32 32 33 32 31 29 27 26 26 26 27 28 31 30 30 31 32 33 34 34 31 28 27 27 27 28 29 30 31 32 32 31 31 30 31 33 34 35 35 34 33 32 32 32 32 32 32 32 33 33 33 33 34 34 34 33 34 34 35 37
39 39 39 38 37 37 36 35 35 34 33 33 32 31 30 29 30 32 34 35 34 33 32 32 32 32 33 32 31 30 29 27 25 24 25 27 29 31 31 31 31 31 31 32 32 31 29 27 25 24 25 27 30 32 33 33 33 32 33 34 35 36 35 34 32 31 31 32 32 33 33 34 34 34 34 34 34 33 33 33 32 32 32 33 35 36
39 39 38 37 37 37 36 35 34 34 34 33 32 31 30 31 32 33 33 33 33 33 33 33 32 32 32 31 28 27 28 29 28 27 28 29 30 31 32 31 31 31 31 30 28 28 28 29 27 24 25 28 31 34 34 33 33 32 33 34 35 34 33 31 31 31 33 34 35 35 36 36 35 34 33 31 30 29 29 28 28 28 30 32 34 36
38 37 36 36 37 36 35 34 33 33 33 33 33 32 32 32 32 32 32 32 33 33 33 33 33 33 32 31 30 29 30 31 31 30 30 31 31 32 32 32 32 32 32 30 29 28 27 29 29 29 29 30 32 33 33 32 31 32 32 32 32 31 31 31 32 34 36 38 38 37 35 33 31 28 26 25 24 23 23 23 23 24 27 30 32 34
36 36 36 36 36 36 34 33 33 33 33 33 33 33 32 32 32 32 32 32 32 32 33 33 33 33 34 34 33 33 33 33 33 32 31 32 33 33 33 33 33 33 33 31 30 30 29 30 32 33 32 31 31 31 30 30 30 31 30 29 29 31 33 37 39 40 40 38 36 33 29 26 24 22 22 21 20 19 19 19 19 21 24 27 30 32
36 37 37 36 35 34 34 34 33 33 33 33 32 32 32 32 32 32 32 32 32 32 32 32 33 34 34 34 34 34 33 34 34 33 32 33 34 35 34 34 33 32 32 31 30 30 30 32 32 32 32 31 31 30 29 29 28 27 27 28 30 34 39 43 43 41 38 34 31 27 24 22 21 21 20 19 17 16 16 16 17 19 22 25 28 31
37 37 36 35 34 34 34 34 34 33 33 32 32 32 32 32 32 33 33 33 33 32 32 33 34 34 34 35 35 35 35 36 36 35 34 35 36 37 36 35 34 33 33 33 32 30 29 30 31 31 30 31 31 30 28 26 25 26 28 32 36 40 43 44 41 37 33 30 27 25 23 22 22 21 19 18 16 15 15 15 16 18 21 24 27 30
36 35 34 33 33 33 33 33 33 33 33 33 32 32 32 32 33 34 34 33 33 32 32 33 33 33 33 34 35 36 37 37 36 34 34 34 36 38 38 36 34 34 34 34 34 33 32 31 30 30 30 30 30 29 28 27 28 30 34 38 41 43 43 40 36 32 30 28 26 25 24 23 22 21 19 17 16 16 16 17 18 19 21 24 28 31
34 33 33 33 33 33 34 33 33 33 32 33 33 34 34 34 34 34 34 34 33 33 32 32 32 32 32 32 33 35 36 36 35 33 32 32 33 36 38 37 35 34 34 34 34 34 33 31 30 30 29 28 27 27 29 30 33 35 38 41 42 41 39 35 31 29 28 27 26 25 24 24 23 22 20 18 17 16 17 18 19 20 22 25 29 33
32 32 32 33 33 33 33 33 33 33 33 33 34 35 35 35 35 34 34 34 33 33 32 32 32 32 32 32 32 33 33 33 33 31 30 29 30 32 35 36 35 34 34 35 35 34 32 30 29 28 27 28 29 30 31 33 34 36 38 40 39 37 34 31 29 28 27 26 26 25 24 24 23 22 20 17 16 15 15 16 16 18 20 23 28 33
32 32 33 33 33 33 33 33 34 34 34 35 35 36 36 35 35 34 33 33 33 32 32 32 33 33 33 32 32 32 32 31 31 29 28 28 28 29 31 33 34 34 34 34 34 32 30 28 27 27 28 30 32 33 34 34 34 35 37 37 36 34 31 29 28 26 25 25 25 25 25 23 22 20 18 15 13 12 11 11 10 10 12 15 20 26
32 32 32 33 33 34 33 34 34 34 34 35 35 35 35 35 35 34 33 33 33 32 32 32 33 33 33 33 33 32 31 30 29 28 28 27 28 28 29 30 32 33 33 32 30 29 28 29 30 31 32 32 32 33 33 33 33 33 33 33 34 33 30 27 25 23 23 23 25 26 26 23 20 17 13 11 9 8 7 6 6 5 6 7 11 17
33 33 33 34 34 35 35 34 34 34 34 34 35 35 35 35 34 33 34 33 33 33 33 33 34 34 34 34 33 32 31 30 29 28 27 27 28 27 27 27 28 29 29 28 29 30 32 33 33 32 31 31 30 30 30 30 30 29 29 30 32 33 30 25 23 22 22 23 23 23 22 19 15 11 9 7 6 5 4 4 4 4 4 5 8 12
33 33 33 34 35 35 34 35 35 34 34 34 34 34 34 34 33 33 33 33 33 33 33 33 34 35 35 35 33 32 30 29 28 27 27 27 27 26 25 24 24 25 26 29 31 33 33 32 30 29 28 28 27 28 28 28 28 27 27 29 31 31 28 23 20 20 22 23 21 19 16 14 11 10 10 10 9 8 6 4 3 2 4 6 9 12
32 33 33 34 34 34 34 35 34 34 33 33 33 34 34 33 33 33 33 33 33 33 33 34 34 35 35 35 34 32 30 29 28 28 27 27 26 25 23 23 24 26 28 31 32 31 30 27 26 25 25 24 24 24 25 26 26 26 27 28 29 30 30 26 22 20 20 20 18 14 12 10 11 13 15 15 14 12 10 7 4 1 3 6 9 12
33 34 34 34 34 34 34 34 33 33 33 33 33 34 33 33 33 33 32 33 34 34 35 35 34 34 34 33 32 31 31 30 29 28 28 27 25 24 23 24 26 28 29 29 28 27 25 24 22 21 20 19 19 19 20 22 24 26 27 26 26 26 27 26 23 21 20 17 14 11 10 11 15 18 20 21 19 17 15 12 8 5 3 5 7 11
32 33 33 33 33 34 35 34 34 33 34 34 34 34 33 33 33 33 32 33 34 34 34 33 33 32 30 31 31 32 31 31 30 29 29 27 25 24 25 27 28 29 27 25 22 20 19 19 18 16 14 14 14 16 17 20 23 26 26 26 25 24 23 21 20 20 18 16 12 11 12 15 19 22 25 25 25 23 20 18 15 13 10 7 7 9
32 33 33 33 34 34 34 34 34 34 33 33 34 34 33 33 33 33 33 33 33 33 33 32 31 30 30 30 31 31 30 30 30 30 30 28 26 26 27 28 29 27 24 20 17 15 13 13 13 12 12 12 13 15 17 19 22 25 26 24 23 22 20 18 17 16 14 13 11 12 15 20 23 25 27 29 29 27 25 24 23 21 18 15 11 10
33 33 33 34 34 34 34 34 33 33 33 33 34 34 34 34 34 33 33 33 33 32 32 31 30 30 30 30 29 29 29 29 29 30 30 28 27 27 29 29 27 23 18 14 11 10 9 9 9 9 10 12 14 16 18 20 22 23 23 22 21 20 19 17 14 12 11 10 11 14 18 22 25 27 29 30 31 31 30 29 28 26 24 21 18 15
33 33 33 34 34 34 34 33 33 33 34 35 35 34 33 33 33 33 33 33 32 32 31 31 30 30 30 29 28 28 27 27 28 29 29 28 28 28 29 28 24 18 12 9 7 7 7 7 7 8 10 11 13 16 19 20 21 21 20 19 18 17 16 14 12 11 11 11 13 16 20 23 25 27 29 31 32 33 33 32 31 30 28 26 24 22
33 33 33 34 34 34 34 33 34 34 34 35 35 34 34 34 33 33 32 32 32 31 31 30 30 29 28 28 27 27 26 27 27 28 27 26 27 28 28 26 21 16 11 8 7 6 7 7 7 8 9 10 13 16 19 21 21 19 17 15 14 13 12 12 12 13 14 15 17 19 22 25 26 28 29 31 32 34 35 35 34 33 31 30 29 27
33 33 33 33 34 34 34 34 33 34 34 34 35 35 35 35 34 33 33 32 31 31 30 29 29 28 27 27 27 27 26 27 27 26 25 25 26 26 25 22 19 16 14 11 9 7 7 6 6 7 9 10 12 16 20 22 21 19 15 12 10 10 12 14 17 18 19 20 21 23 25 27 28 30 31 32 33 34 35 36 36 35 33 32 31 30
33 33 33 33 33 34 34 34 34 34 34 35 35 36 36 35 35 34 33 32 32 31 30 29 28 26 25 25 26 26 25 25 25 24 23 23 23 22 20 18 18 19 18 16 14 12 10 9 9 9 9 10 12 15 18 22 22 18 13 9 9 12 16 19 22 24 25 25 26 27 29 30 31 32 32 33 33 34 35 36 37 37 35 34 33 32
Wind_Direction
298 299 300 301 301 300 299 299 299 299 300 301 303 304 304 303 301 300 300 301 301 300 299 298 297 297 297 297 295 292 289 289 290 291 293 294 294 294 295 295 295 296 296 296 296 296 296 296 296 296 295 295 294 292 291 289 288 287 287 286 286 287 288 289 288 287 288 288 289 289 289 288 287 286 285 284 283 281 280 278 277 276 275 275 273 269
299 300 300 300 299 298 297 298 298 298 300 301 302 302 302 300 299 299 299 301 302 301 298 297 297 298 298 297 294 291 288 288 289 291 293 294 294 294 294 295 295 295 296 296 296 296 296 296 296 296 295 295 294 293 291 290 289 287 285 285 285 286 287 287 287 287 288 289 290 291 290 289 287 285 284 283 282 281 279 278 276 275 275 274 272 269
301 301 300 299 298 296 297 298 299 299 299 300 300 300 298 297 297 297 299 301 302 300 297 297 299 300 300 298 294 291 289 289 291 293 294 294 294 294 294 295 295 295 296 296 295 296 296 296 296 296 295 294 293 292 292 291 290 289 287 287 287 287 288 288 287 287 288 290 291 292 291 289 286 285 284 283 281 279 278 276 276 275 274 273 270 267
300 299 298 298 297 297 297 298 299 299 298 298 297 297 296 295 296 298 299 300 299 297 296 298 300 302 301 299 296 294 292 293 294 295 294 294 294 294 294 295 295 295 295 295 295 296 296 296 296 295 295 294 293 292 292 291 291 290 290 289 288 287 287 286 285 285 287 289 291 292 290 288 286 286 285 284 282 280 277 275 274 274 273 271 269 265
297 297 297 298 298 298 298 298 298 298 297 296 295 294 294 295 297 298 298 297 296 295 297 299 301 301 300 298 297 295 294 294 295 294 294 294 294 294 294 295 295 295 295 295 295 296 296 296 296 295 294 293 292 292 292 291 291 290 289 288 287 286 284 282 282 284 287 289 290 289 288 286 285 285 286 287 286 284 281 277 275 274 273 272 269 266
296 296 297 297 297 296 297 297 297 296 295 294 293 294 296 300 300 298 296 294 295 297 300 302 302 301 299 297 296 295 295 294 293 293 293 294 294 294 294 294 294 294 295 295 296 296 296 296 295 294 293 293 292 291 291 290 290 290 289 289 287 285 283 281 282 285 287 287 286 284 283 282 282 283 284 286 286 286 285 282 279 276 275 273 271 268
296 296 295 295 294 294 294 294 294 295 294 294 296 299 302 303 302 298 295 295 299 303 305 305 303 301 299 297 296 295 294 293 293 293 294 294 294 294 294 294 294 294 295 295 296 296 297 296 296 295 294 292 291 291 290 290 290 290 290 289 287 286 285 285 285 286 286 285 283 282 281 281 282 283 283 283 283 283 283 283 281 278 276 274 272 268
295 294 293 292 292 293 293 293 294 296 297 299 302 304 306 305 303 300 298 301 304 306 307 305 303 301 298 297 296 295 294 294 294 294 295 295 295 294 294 294 294 294 295 296 296 297 297 297 296 295 294 292 291 290 290 290 290 290 290 289 288 287 286 285 285 284 284 284 282 281 281 282 283 283 282 281 280 280 280 280 279 278 276 274 272 269
292 292 291 290 291 293 295 297 301 304 307 308 307 306 305 304 303 302 303 304 304 305 305 303 302 300 298 297 296 295 295 294 295 295 295 294 294 294 294 294 294 294 295 296 297 297 297 296 296 294 293 292 291 290 290 289 290 289 289 288 287 286 285 284 284 283 282 282 281 281 281 282 282 281 279 278 278 279 279 279 279 278 277 275 273 270
290 290 290 292 295 299 303 306 310 312 312 311 308 305 303 303 303 304 304 303 303 303 303 302 301 300 299 298 297 296 295 295 295 295 294 293 292 292 292 292 293 294 296 297 297 297 297 296 295 294 293 292 291 290 290 290 290 290 290 290 289 288 287 285 284 283 282 281 280 280 280 279 278 278 278 279 280 281 281 281 281 280 278 275 271 269
290 291 294 301 307 311 312 311 312 312 312 310 308 305 302 302 304 305 305 304 303 303 303 301 300 299 298 298 298 298 297 297 296 295 294 293 291 291 290 291 293 294 296 297 298 298 297 296 295 294 293 292 292 292 292 293 294 295 295 295 293 292 290 288 286 285 283 281 278 277 276 276 276 277 280 282 283 283 282 282 281 280 278 275 271 269
293 300 308 313 314 314 313 313 313 313 312 310 307 305 303 303 304 304 304 303 303 303 303 302 300 298 297 298 298 299 298 297 296 294 293 292 291 290 291 293 294 296 297 298 298 298 297 297 296 296 295 296 296 297 297 298 299 299 298 297 295 293 291 289 287 285 283 280 277 275 275 275 278 281 284 285 285 284 282 281 280 278 277 274 272 272
306 312 314 313 312 313 313 313 313 312 309 307 304 303 303 303 304 304 302 301 301 301 301 301 300 298 298 298 299 299 298 296 294 292 291 290 290 291 293 295 296 297 297 297 297 297 298 299 299 300 300 300 300 301 301 302 301 301 300 298 296 294 292 290 287 284 281 278 276 276 276 279 283 287 288 288 286 285 283 280 278 276 275 273 272 272
313 314 312 311 311 311 312 312 311 308 306 303 302 302 302 303 303 303 301 300 299 300 299 298 297 297 298 299 300 299 296 294 291 290 289 289 290 293 295 296 297 297 297 296 296 297 299 300 301 301 302 302 302 302 303 303 302 302 300 298 296 294 291 288 286 283 281 280 279 281 284 286 287 288 288 287 285 284 282 279 277 274 272 271 269 269
312 312 311 309 309 309 309 309 308 305 303 302 302 301 302 302 302 301 301 299 299 299 299 297 296 297 298 300 302 301 297 292 290 289 290 291 293 295 297 297 297 296 295 295 295 297 299 300 300 300 302 302 301 301 301 301 301 299 297 296 294 291 289 287 286 285 285 284 285 287 288 288 288 287 286 284 283 282 280 277 275 274 273 271 268 267
311 310 309 308 307 307 307 307 306 304 302 301 301 301 301 300 300 300 300 299 299 299 298 298 298 299 300 303 304 303 298 294 293 295 296 297 296 297 298 297 296 295 294 294 294 295 297 298 299 299 299 298 297 297 297 297 297 295 294 292 291 289 288 287 287 287 286 286 286 287 286 287 287 286 285 283 282 281 279 276 274 274 274 273 270 267
310 309 308 307 306 306 306 306 304 302 301 300 300 299 298 297 298 299 298 297 297 296 296 295 296 299 302 305 307 305 302 301 302 303 301 299 298 298 298 297 295 294 293 293 293 293 294 296 297 296 294 293 292 293 294 294 294 293 292 290 288 287 286 286 285 285 285 285 286 286 287 286 286 285 283 282 281 280 277 275 274 273 273 272 269 267
309 308 307 306 306 305 305 304 302 301 300 299 299 298 297 296 296 296 297 295 294 292 292 293 294 297 301 303 304 305 305 307 308 306 302 299 297 298 298 296 294 292 292 291 291 292 293 295 294 291 290 289 290 291 291 291 291 290 289 288 287 286 285 285 285 285 285 286 286 286 285 284 283 281 281 281 280 279 276 274 272 271 270 270 269 268
308 307 307 306 305 304 303 301 299 298 298 298 298 298 297 297 296 295 294 293 292 290 290 292 295 298 300 300 300 302 305 307 307 304 301 298 297 297 298 297 294 292 290 290 291 294 295 295 293 291 291 291 292 291 291 291 290 289 289 288 286 286 285 285 285 285 286 286 285 284 282 281 280 279 279 279 278 277 275 273 271 270 269 270 269 269
307 307 306 305 304 302 300 297 296 295 296 296 297 297 296 296 296 295 293 292 293 293 295 296 298 299 300 299 299 300 304 306 305 302 299 297 295 296 297 296 293 291 290 290 292 293 293 292 291 292 295 296 295 293 292 292 291 291 290 288 287 286 286 285 285 285 285 284 283 283 283 283 282 281 279 278 277 276 274 272 271 270 269 269 269 268
306 306 305 304 302 299 296 294 294 295 296 297 298 298 297 297 297 297 297 298 299 299 299 299 298 298 298 298 297 299 302 304 303 300 298 295 294 294 296 296 294 292 290 291 292 293 293 293 296 297 297 296 294 293 292 292 292 292 291 290 289 288 287 286 286 285 284 284 284 284 285 285 284 283 281 279 277 276 274 272 270 269 269 268 267 266
305 304 304 303 300 296 293 293 295 298 301 303 303 301 300 301 301 301 302 302 301 300 298 297 296 297 297 296 296 298 300 301 299 297 296 293 292 293 295 295 294 291 289 290 293 295 296 298 298 297 295 294 293 293 294 293 294 293 292 291 290 289 288 287 286 284 283 283 283 284 285 285 285 283 281 279 276 274 272 270 269 268 267 266 265 263
304 303 303 302 299 296 295 297 301 304 307 308 306 304 303 302 301 300 300 299 299 298 297 297 296 296 296 296 296 297 298 298 297 295 293 290 290 292 295 295 292 290 289 292 296 299 299 297 295 293 293 293 294 295 295 295 295 294 293 292 291 289 288 287 285 283 282 280 281 283 285 285 285 282 279 277 275 273 271 269 268 267 266 265 265 263
305 303 301 299 298 298 300 303 306 307 307 306 304 302 301 299 298 298 298 298 297 297 298 298 298 298 297 297 297 297 297 297 296 294 291 288 288 290 293 294 293 293 294 297 299 299 297 295 293 293 294 294 295 297 298 298 297 296 295 293 290 288 286 285 283 282 281 281 282 284 285 285 284 281 278 276 275 273 272 270 269 269 268 267 266 265
306 302 299 299 299 301 303 304 305 304 303 302 301 300 299 299 299 299 299 298 298 299 300 300 299 298 297 298 297 297 296 297 296 293 289 287 287 290 293 295 296 297 297 297 298 297 296 295 294 295 295 296 297 299 300 301 300 299 296 293 290 287 285 283 282 282 283 284 285 286 285 284 282 280 278 276 275 274 273 272 271 271 270 269 268 266
305 301 300 301 302 304 304 304 304 303 302 301 301 300 301 301 301 300 300 299 300 301 302 300 298 297 297 297 296 296 297 298 297 293 289 288 288 290 293 296 298 297 297 297 297 297 296 295 295 295 295 297 299 300 302 303 302 300 296 293 289 286 284 284 284 286 287 288 287 287 285 284 282 280 278 276 275 274 273 273 272 271 271 270 269 266
307 305 305 306 307 308 308 308 308 307 305 304 303 302 302 302 301 300 300 301 302 303 301 299 297 297 297 297 296 295 297 297 296 294 292 290 289 290 294 298 298 297 297 297 297 296 295 294 294 295 295 298 300 302 303 303 301 299 296 293 289 287 286 287 289 290 290 290 289 287 286 284 283 281 279 278 277 275 274 273 272 271 271 270 268 266
311 311 312 312 312 312 312 312 311 310 309 307 306 305 304 302 300 300 300 302 303 302 300 297 296 296 296 296 296 296 297 296 295 296 296 293 290 291 296 298 298 297 297 297 297 296 294 293 293 295 297 299 301 302 302 301 300 297 295 291 289 289 290 292 292 292 291 291 290 289 287 285 283 282 281 279 278 276 274 273 272 271 270 269 267 263
313 314 315 315 316 316 316 315 314 312 312 311 309 307 306 302 300 299 300 302 302 301 298 296 295 295 295 295 296 297 297 296 296 298 299 296 293 293 296 298 298 298 299 299 300 299 296 294 294 297 299 300 300 300 299 299 297 295 294 292 292 293 295 296 296 295 293 292 291 290 288 286 284 282 281 279 277 275 273 272 271 269 268 266 263 260
315 316 317 317 318 318 317 315 314 314 314 313 311 308 306 303 300 300 301 302 301 299 296 296 295 295 295 296 296 297 297 297 298 300 301 298 295 294 296 297 298 298 300 301 301 301 299 298 298 299 299 299 299 298 298 297 296 295 295 296 297 298 299 299 298 297 296 294 293 291 289 286 284 282 280 278 276 274 272 270 268 266 265 263 261 258
316 316 316 316 317 317 316 314 314 313 313 312 311 309 306 304 303 302 302 302 300 298 296 295 295 294 295 295 295 296 297 298 299 300 301 297 294 294 296 297 298 299 300 300 300 301 301 302 302 301 300 299 298 297 297 296 296 296 297 299 299 300 300 300 299 298 297 296 294 292 290 288 286 284 282 280 277 274 271 267 264 262 260 260 259 257
315 314 314 314 315 315 314 313 312 311 311 310 309 308 307 305 305 304 303 302 300 299 296 295 294 294 293 293 292 292 293 296 298 300 301 297 294 294 296 297 298 299 299 298 297 296 297 300 302 302 300 298 297 297 297 297 298 299 299 299 299 299 299 300 300 300 300 299 297 296 294 293 292 290 288 286 282 278 272 265 259 256 255 255 255 254
313 313 313 314 315 315 314 313 311 310 310 309 309 308 308 307 306 305 305 304 303 300 298 295 294 294 293 292 291 290 291 293 297 301 301 298 295 295 297 297 298 298 299 298 296 293 292 294 297 300 300 298 297 297 298 298 299 300 300 298 298 298 300 302 303 303 303 303 303 302 302 301 301 300 298 295 290 283 274 264 255 249 248 249 251 251
313 314 314 314 315 314 314 313 312 311 311 310 309 308 308 308 308 307 307 306 305 302 299 296 295 294 293 293 292 291 292 294 299 302 302 299 297 296 298 298 298 298 299 298 297 295 293 293 295 297 298 298 298 298 299 300 300 300 298 297 298 300 302 305 307 308 308 308 308 308 309 309 309 308 306 301 295 287 277 266 254 247 244 245 248 250
314 314 315 315 314 313 313 313 312 312 311 311 310 310 310 309 309 309 309 308 306 304 302 300 298 296 295 293 292 292 293 297 302 305 305 302 299 298 298 298 298 298 298 298 298 297 294 294 295 296 297 299 299 300 301 301 300 299 298 298 300 302 305 308 310 311 312 312 312 313 314 315 315 314 311 307 301 294 284 274 263 253 247 244 244 247
313 314 314 314 313 313 313 312 312 312 312 312 311 311 311 311 311 311 310 309 308 306 305 304 303 301 299 296 294 293 295 300 306 309 309 307 304 300 297 297 298 299 298 297 297 297 296 295 296 297 298 299 300 302 303 302 301 300 300 302 304 306 308 310 312 314 315 315 316 317 318 319 319 318 316 312 306 298 289 280 272 262 253 246 242 241
313 313 313 313 313 313 313 313 312 312 312 312 313 313 313 313 312 313 313 312 312 311 310 309 308 307 305 303 300 299 301 306 310 312 313 312 308 303 299 298 298 299 298 297 296 296 296 296 298 299 300 299 300 302 304 304 303 303 303 305 306 308 311 314 316 318 318 318 320 321 322 322 322 321 318 313 305 296 287 279 271 264 257 249 243 239
312 312 312 313 313 313 313 313 313 313 313 313 313 314 314 314 314 314 314 315 315 314 312 311 311 311 309 309 309 310 311 312 314 315 316 315 312 308 303 301 301 302 301 298 297 296 296 297 300 302 302 301 300 300 302 303 304 304 305 307 309 311 314 317 320 321 321 322 323 324 325 325 325 323 319 312 303 292 282 273 266 260 254 248 244 241
313 312 312 313 313 313 313 313 313 314 314 314 315 315 315 316 316 316 316 316 316 315 314 314 314 314 314 316 317 317 318 318 318 319 319 318 317 314 309 305 304 304 303 300 297 295 296 298 301 302 302 301 301 300 301 302 303 305 308 311 314 316 318 321 323 324 326 327 328 329 329 329 327 324 319 311 301 291 282 274 267 262 256 249 243 240
313 312 312 313 313 314 313 313 314 314 315 315 316 317 317 318 318 317 317 317 317 317 317 317 317 318 318 319 320 321 321 321 321 321 321 321 321 319 315 310 306 304 302 299 297 297 299 301 301 300 300 299 299 300 302 303 305 308 311 313 314 317 322 325 328 330 332 333 333 333 332 332 330 326 322 317 310 303 298 297 297 294 283 266 247 238
314 313 313 313 314 315 315 315 315 316 316 316 317 318 318 319 318 318 319 319 319 319 320 321 321 321 322 322 323 323 323 323 323 322 322 322 323 322 319 314 309 305 302 300 300 301 303 303 302 301 300 300 300 301 302 304 308 311 313 312 314 319 324 329 334 336 337 337 336 336 335 335 336 340 345 350 353 352 345 341 336 321 292 260 239 229
314 313 314 314 315 316 316 317 317 317 317 318 318 318 319 319 319 319 319 319 319 320 322 323 322 322 322 322 323 324 323 324 323 323 323 324 324 324 321 317 312 308 305 305 304 304 304 304 303 301 300 301 301 301 302 306 311 315 316 317 319 323 326 332 340 342 339 339 340 341 341 344 353 9 24 33 38 39 37 28 8 320 267 243 228 220
314 314 315 315 316 317 317 318 318 319 319 319 318 319 320 321 321 321 320 319 320 321 323 324 324 322 320 320 320 322 324 325 325 325 325 326 326 325 323 318 313 310 309 309 308 308 306 305 303 302 302 303 303 302 304 309 315 319 322 324 324 323 321 329 339 345 343 344 347 351 356 7 23 36 45 51 55 60 64 68 72 103 237 230 219 211
316 316 317 317 318 318 319 319 319 319 320 319 319 320 321 323 324 323 320 320 322 324 326 326 326 323 319 317 318 320 323 326 327 327 327 328 328 327 323 319 317 316 315 314 311 309 308 306 305 305 306 307 307 308 311 316 320 323 326 329 328 323 319 325 334 341 344 350 359 10 22 36 46 52 56 60 64 69 75 81 89 105 158 199 203 201
318 318 318 319 319 320 320 320 320 320 321 321 321 322 322 325 326 325 322 322 324 325 326 326 325 321 317 317 319 321 323 325 326 328 329 331 331 329 327 325 324 323 321 317 313 309 307 306 308 312 316 316 315 316 318 321 324 326 329 332 332 330 330 334 337 340 344 354 10 31 48 56 59 60 60 62 66 71 76 81 85 91 103 127 158 179
320 319 319 320 320 320 320 321 322 322 322 322 323 324 325 326 327 327 326 325 325 325 326 326 324 320 317 318 320 322 323 324 326 328 330 333 335 335 333 331 330 328 325 321 317 312 309 310 315 321 326 325 324 324 326 328 329 330 331 334 335 336 338 342 345 348 353 4 22 46 62 66 66 64 62 63 66 70 74 77 79 81 87 97 112 136
321 320 320 321 321 321 322 322 323 323 323 323 324 325 327 327 328 327 327 327 327 326 327 327 325 322 320 320 322 323 323 324 326 328 331 336 338 338 336 335 335 334 332 329 325 323 324 328 332 334 333 330 329 331 335 337 337 335 335 336 338 339 342 348 355 4 13 26 42 58 68 69 68 66 65 66 67 68 70 72 74 76 78 83 90 102
322 322 321 322 322 322 322 323 324 324 324 325 326 326 327 328 328 327 327 328 329 328 327 327 326 324 323 323 324 325 325 325 327 330 334 338 340 339 338 339 341 344 346 346 343 341 343 346 347 345 341 337 336 338 343 346 346 344 342 340 340 342 348 359 13 29 43 53 62 68 70 70 68 67 67 66 66 66 66 67 69 71 73 75 79 84
323 323 322 323 323 323 323 324 325 325 325 325 325 326 327 329 329 329 329 330 330 330 329 328 327 326 325 325 327 328 328 328 330 334 338 341 341 340 340 343 349 356 6 13 11 3 357 354 354 356 355 354 351 350 352 353 354 353 350 346 346 352 6 25 43 56 64 69 72 74 74 74 73 71 70 67 66 66 65 65 65 66 68 70 73 77
325 325 324 324 324 324 324 325 326 326 326 326 326 326 328 329 331 332 333 333 332 332 331 331 330 328 327 327 329 330 330 331 334 338 342 344 343 342 344 350 359 9 17 26 30 26 17 9 8 11 15 15 11 6 3 2 1 360 357 355 2 21 41 54 63 69 72 74 76 77 77 76 76 75 73 69 67 67 67 66 65 65 66 68 72 75
326 326 326 326 325 325 326 327 326 326 327 327 328 328 329 331 333 334 335 336 335 335 334 334 333 332 329 330 331 332 333 335 339 342 346 346 345 346 352 2 12 18 21 25 31 35 37 37 36 36 37 36 29 22 18 12 6 1 1 12 39 59 66 69 72 74 76 76 78 79 78 77 76 74 72 70 68 66 66 66 66 66 66 67 70 73
Height
1373 1370 1369 1368 1366 1363 1360 1360 1360 1357 1353 1352 1351 1350 1348 1347 1345 1344 1343 1342 1340 1339 1337 1335 1334 1332 1330 1329 1328 1327 1325 1324 1323 1322 1321 1320 1318 1317 1316 1315 1313 1312 1310 1309 1308 1306 1305 1303 1302 1300 1299 1297 1295 1295 1293 1292 1292 1291 1290 1289 1289 1288 1288 1287 1286 1285 1284 1283 1282 1281 1280 1279 1279 1279 1278 1278 1277 1277 1277 1276 1276 1275 1275 1274 1274 1274
1371 1369 1367 1366 1365 1362 1358 1357 1357 1356 1353 1350 1348 1347 1345 1344 1342 1340 1339 1338 1337 1336 1335 1333 1331 1330 1328 1326 1325 1324 1322 1321 1320 1319 1318 1316 1315 1314 1313 1311 1310 1309 1307 1305 1304 1302 1301 1299 1298 1296 1295 1293 1292 1290 1289 1288 1288 1287 1286 1285 1285 1284 1284 1283 1282 1281 1280 1279 1278 1277 1276 1276 1275 1275 1275 1274 1274 1274 1273 1273 1273 1272 1272 1271 1271 1271
1370 1366 1364 1364 1363 1360 1356 1354 1353 1353 1351 1348 1346 1344 1343 1341 1339 1337 1336 1335 1334 1333 1332 1330 1329 1327 1325 1324 1323 1321 1319 1318 1316 1315 1315 1313 1312 1311 1310 1308 1307 1305 1304 1302 1300 1299 1297 1295 1294 1292 1291 1289 1288 1287 1286 1285 1284 1283 1283 1282 1281 1280 1280 1279 1279 1278 1277 1275 1274 1274 1273 1273 1272 1272 1272 1272 1271 1270 1270 1270 1269 1269 1269 1268 1268 1268
1369 1365 1362 1360 1359 1357 1355 1353 1351 1349 1348 1346 1344 1341 1340 1339 1337 1335 1334 1332 1331 1330 1328 1328 1326 1325 1323 1321 1319 1318 1316 1315 1314 1313 1312 1310 1309 1308 1306 1305 1303 1302 1300 1298 1297 1295 1293 1291 1290 1288 1287 1286 1285 1284 1282 1281 1281 1280 1279 1279 1278 1277 1277 1276 1275 1274 1273 1272 1271 1270 1270 1270 1270 1269 1269 1269 1268 1268 1267 1267 1266 1266 1266 1265 1265 1264
1366 1364 1360 1359 1357 1355 1352 1351 1349 1347 1345 1343 1341 1339 1338 1336 1335 1333 1331 1330 1328 1326 1325 1324 1324 1322 1320 1318 1316 1314 1313 1312 1311 1310 1309 1307 1306 1304 1303 1301 1300 1298 1296 1295 1293 1291 1290 1288 1286 1285 1284 1282 1281 1280 1279 1278 1278 1277 1276 1275 1274 1274 1273 1272 1272 1270 1269 1268 1268 1267 1267 1268 1267 1267 1266 1266 1265 1265 1264 1264 1263 1263 1262 1262 1262 1261
1363 1362 1360 1358 1355 1352 1350 1348 1346 1345 1342 1340 1338 1337 1336 1335 1333 1331 1329 1326 1325 1323 1322 1321 1320 1318 1316 1315 1313 1311 1310 1310 1308 1307 1305 1304 1302 1301 1299 1298 1296 1295 1293 1291 1290 1288 1286 1284 1283 1281 1280 1279 1278 1277 1276 1275 1274 1274 1273 1272 1271 1270 1269 1268 1268 1267 1266 1266 1265 1265 1265 1264 1264 1264 1264 1263 1262 1261 1260 1260 1260 1259 1259 1259 1258 1258
1360 1359 1358 1355 1352 1350 1348 1346 1344 1343 1340 1338 1336 1335 1334 1333 1331 1329 1326 1324 1322 1320 1319 1317 1316 1315 1313 1312 1310 1309 1308 1306 1305 1304 1302 1300 1299 1297 1295 1294 1293 1291 1289 1288 1286 1284 1282 1281 1279 1278 1277 1276 1275 1274 1273 1272 1271 1270 1269 1268 1267 1266 1265 1264 1264 1264 1263 1263 1262 1262 1261 1261 1260 1260 1260 1260 1259 1258 1257 1256 1256 1256 1255 1255 1254 1254
1357 1355 1354 1353 1350 1346 1345 1343 1342 1341 1339 1337 1335 1333 1331 1329 1328 1326 1324 1322 1320 1319 1317 1315 1313 1312 1311 1310 1308 1307 1305 1303 1301 1300 1298 1297 1295 1294 1292 1290 1289 1288 1286 1284 1282 1281 1279 1278 1276 1275 1274 1273 1271 1270 1269 1269 1268 1267 1266 1265 1264 1263 1262 1261 1261 1260 1260 1259 1259 1258 1258 1257 1257 1257 1257 1256 1255 1255 1254 1253 1252 1252 1252 1252 1251 1251
1355 1352 1350 1349 1348 1345 1342 1340 1340 1340 1339 1337 1334 1332 1329 1327 1325 1323 1321 1320 1319 1318 1316 1314 1311 1309 1307 1306 1305 1304 1302 1300 1299 1297 1295 1293 1292 1290 1289 1287 1286 1284 1282 1281 1279 1277 1276 1274 1273 1272 1270 1269 1268 1267 1266 1265 1264 1263 1262 1261 1260 1259 1259 1258 1257 1256 1256 1255 1255 1255 1254 1254 1254 1254 1253 1253 1252 1251 1250 1250 1249 1249 1249 1248 1248 1248
1353 1350 1348 1346 1346 1345 1343 1340 1338 1338 1338 1336 1334 1331 1329 1326 1323 1320 1318 1316 1315 1315 1314 1312 1309 1306 1303 1302 1302 1300 1299 1297 1296 1294 1293 1290 1289 1287 1286 1284 1282 1281 1279 1277 1276 1274 1273 1271 1270 1269 1267 1266 1265 1264 1263 1262 1260 1259 1259 1257 1256 1256 1255 1254 1254 1253 1252 1252 1252 1252 1252 1251 1251 1250 1250 1249 1249 1248 1247 1246 1246 1246 1245 1245 1245 1244
1350 1349 1347 1346 1344 1344 1343 1340 1338 1336 1335 1334 1331 1329 1328 1326 1323 1320 1316 1312 1311 1310 1310 1309 1307 1304 1301 1299 1298 1297 1296 1294 1292 1290 1289 1287 1285 1284 1283 1281 1279 1278 1276 1274 1273 1271 1270 1268 1267 1265 1264 1262 1261 1260 1259 1258 1257 1255 1254 1254 1253 1252 1251 1251 1250 1249 1249 1249 1249 1248 1248 1247 1247 1246 1246 1245 1244 1244 1244 1243 1243 1243 1243 1242 1242 1241
1348 1347 1346 1345 1344 1342 1340 1338 1336 1335 1333 1332 1329 1326 1325 1324 1323 1320 1316 1312 1309 1307 1306 1305 1303 1302 1300 1297 1295 1294 1293 1291 1288 1286 1284 1282 1281 1280 1279 1278 1276 1274 1273 1271 1269 1268 1266 1264 1263 1261 1260 1258 1257 1256 1255 1254 1253 1252 1251 1250 1249 1249 1248 1247 1247 1247 1246 1246 1245 1244 1244 1244 1244 1243 1243 1242 1241 1240 1240 1240 1240 1240 1240 1240 1239 1239
1348 1346 1345 1343 1342 1340 1339 1336 1334 1333 1332 1330 1328 1325 1322 1320 1320 1318 1315 1311 1308 1306 1304 1301 1299 1297 1296 1296 1294 1292 1290 1288 1285 1283 1280 1279 1278 1277 1276 1275 1273 1271 1269 1267 1265 1263 1262 1260 1259 1257 1256 1254 1253 1252 1252 1251 1250 1249 1248 1247 1246 1245 1245 1244 1244 1244 1243 1242 1242 1242 1241 1241 1240 1240 1239 1239 1238 1238 1237 1237 1237 1237 1237 1237 1236 1236
1345 1344 1343 1341 1340 1339 1338 1336 1334 1332 1330 1328 1327 1324 1321 1319 1317 1315 1313 1309 1306 1304 1302 1299 1296 1293 1292 1292 1292 1290 1288 1285 1282 1279 1277 1276 1275 1275 1274 1272 1270 1268 1266 1264 1261 1259 1258 1257 1255 1253 1252 1251 1250 1249 1249 1248 1247 1246 1245 1244 1243 1243 1242 1241 1241 1240 1239 1239 1239 1238 1238 1237 1237 1237 1237 1236 1235 1234 1234 1234 1234 1234 1233 1233 1232 1232
1344 1343 1341 1339 1338 1337 1336 1335 1333 1330 1328 1326 1325 1322 1320 1317 1315 1313 1311 1307 1304 1302 1300 1296 1293 1290 1288 1289 1289 1288 1285 1282 1279 1277 1275 1273 1273 1273 1272 1270 1267 1265 1263 1261 1259 1256 1255 1254 1252 1250 1249 1248 1247 1246 1245 1244 1244 1243 1242 1242 1241 1240 1239 1238 1237 1237 1236 1235 1235 1235 1234 1234 1234 1233 1233 1232 1231 1231 1230 1230 1230 1230 1229 1229 1229 1229
1343 1342 1340 1338 1336 1335 1334 1333 1331 1328 1325 1324 1322 1320 1318 1315 1313 1311 1309 1305 1302 1299 1297 1294 1290 1286 1283 1284 1285 1285 1283 1280 1278 1275 1273 1270 1269 1269 1270 1268 1264 1261 1259 1258 1256 1254 1252 1251 1249 1248 1246 1245 1244 1244 1243 1242 1242 1241 1240 1239 1238 1236 1236 1235 1234 1234 1233 1232 1232 1231 1231 1230 1230 1229 1229 1228 1227 1227 1227 1227 1227 1226 1226 1226 1225 1225
1342 1340 1339 1337 1335 1333 1331 1331 1329 1327 1324 1321 1320 1318 1315 1313 1310 1309 1306 1303 1300 1297 1295 1292 1289 1285 1280 1279 1280 1282 1281 1279 1276 1274 1272 1268 1266 1266 1267 1266 1262 1258 1256 1254 1253 1251 1249 1248 1246 1245 1244 1243 1242 1241 1241 1240 1239 1239 1238 1236 1234 1233 1233 1232 1231 1230 1230 1229 1228 1228 1227 1227 1226 1225 1224 1224 1224 1223 1223 1223 1223 1223 1223 1223 1223 1222
1341 1340 1338 1335 1333 1331 1329 1328 1326 1324 1322 1320 1317 1315 1313 1310 1308 1306 1304 1301 1298 1295 1292 1290 1288 1285 1281 1278 1277 1278 1279 1277 1274 1272 1269 1266 1263 1262 1263 1263 1260 1256 1253 1251 1250 1249 1247 1245 1244 1243 1241 1240 1239 1239 1239 1238 1237 1236 1234 1233 1231 1230 1229 1229 1228 1227 1226 1225 1224 1224 1224 1223 1222 1221 1221 1220 1220 1220 1220 1220 1220 1219 1219 1219 1219 1219
1339 1338 1336 1334 1331 1329 1326 1325 1324 1322 1320 1317 1315 1312 1309 1307 1305 1303 1300 1298 1295 1293 1290 1288 1285 1284 1281 1278 1276 1276 1277 1276 1274 1270 1267 1263 1259 1258 1259 1259 1257 1253 1250 1248 1247 1245 1244 1242 1241 1240 1239 1239 1238 1237 1236 1235 1233 1232 1230 1229 1228 1227 1226 1225 1224 1224 1223 1222 1221 1220 1219 1219 1218 1218 1218 1217 1216 1216 1216 1216 1216 1216 1216 1215 1215 1215
1337 1335 1334 1332 1330 1326 1324 1322 1321 1320 1318 1315 1313 1310 1306 1304 1301 1299 1296 1295 1293 1291 1289 1287 1284 1281 1280 1277 1275 1274 1274 1274 1272 1268 1264 1260 1256 1255 1256 1256 1254 1250 1247 1245 1244 1243 1241 1239 1239 1238 1237 1236 1235 1234 1233 1231 1229 1228 1226 1225 1224 1223 1222 1221 1220 1219 1219 1218 1217 1216 1215 1215 1214 1214 1214 1213 1213 1212 1212 1212 1212 1212 1212 1212 1212 1212
1334 1332 1331 1330 1328 1325 1321 1319 1318 1317 1315 1313 1310 1307 1304 1301 1298 1296 1295 1293 1291 1289 1287 1285 1282 1279 1278 1276 1273 1272 1272 1272 1270 1266 1262 1258 1254 1252 1253 1253 1251 1247 1244 1241 1240 1240 1239 1238 1236 1235 1234 1234 1232 1231 1229 1227 1226 1224 1223 1222 1220 1219 1219 1218 1217 1216 1215 1214 1213 1212 1212 1211 1211 1210 1210 1209 1209 1209 1209 1208 1208 1208 1208 1208 1208 1208
1333 1329 1327 1327 1326 1323 1320 1317 1315 1314 1313 1311 1308 1305 1302 1300 1298 1295 1293 1291 1290 1287 1285 1282 1280 1278 1276 1274 1271 1269 1270 1270 1268 1265 1261 1256 1251 1249 1250 1250 1248 1244 1241 1239 1238 1238 1237 1236 1234 1233 1232 1230 1229 1227 1225 1224 1222 1221 1219 1218 1217 1216 1215 1214 1214 1213 1212 1211 1210 1209 1209 1208 1207 1207 1206 1205 1205 1205 1205 1205 1205 1205 1205 1205 1204 1204
1330 1327 1325 1324 1323 1320 1318 1315 1313 1312 1311 1310 1307 1305 1302 1300 1297 1294 1292 1290 1287 1285 1282 1279 1277 1275 1273 1271 1269 1268 1267 1267 1266 1264 1260 1254 1249 1246 1247 1247 1245 1241 1239 1238 1237 1236 1235 1233 1232 1230 1229 1227 1226 1224 1222 1220 1219 1218 1216 1215 1214 1213 1212 1211 1210 1209 1209 1208 1207 1206 1205 1204 1204 1203 1202 1202 1201 1201 1201 1201 1201 1201 1201 1200 1200 1200
1328 1325 1323 1321 1320 1318 1316 1315 1313 1311 1309 1307 1305 1303 1300 1298 1296 1293 1290 1288 1285 1282 1279 1276 1274 1271 1269 1269 1267 1265 1264 1264 1263 1261 1258 1253 1248 1245 1244 1244 1242 1239 1237 1236 1235 1234 1232 1230 1228 1227 1225 1224 1222 1221 1219 1217 1216 1214 1213 1212 1211 1210 1209 1208 1207 1206 1205 1204 1204 1203 1202 1201 1200 1199 1199 1198 1198 1197 1197 1197 1196 1196 1196 1196 1196 1196
1326 1324 1321 1320 1318 1317 1315 1313 1311 1309 1307 1305 1303 1300 1298 1295 1293 1290 1288 1286 1284 1280 1277 1274 1272 1269 1267 1266 1264 1263 1261 1261 1261 1259 1256 1251 1246 1243 1242 1242 1241 1238 1234 1233 1233 1232 1229 1227 1225 1223 1222 1220 1219 1217 1216 1214 1213 1212 1210 1209 1208 1207 1206 1205 1204 1203 1203 1202 1201 1199 1198 1197 1196 1195 1194 1194 1193 1193 1193 1192 1192 1192 1192 1192 1191 1191
1324 1322 1320 1319 1317 1315 1313 1311 1309 1307 1305 1303 1301 1298 1295 1293 1290 1288 1285 1283 1281 1279 1276 1273 1269 1267 1265 1264 1262 1260 1259 1258 1258 1256 1254 1249 1244 1241 1240 1240 1239 1236 1232 1230 1229 1228 1226 1224 1221 1220 1219 1217 1215 1214 1213 1211 1210 1209 1207 1206 1205 1204 1203 1202 1201 1200 1199 1199 1197 1196 1194 1193 1192 1191 1191 1190 1189 1189 1189 1189 1188 1188 1188 1188 1187 1187
1321 1320 1318 1316 1314 1312 1310 1308 1305 1304 1302 1300 1298 1296 1294 1291 1288 1285 1283 1281 1279 1277 1274 1271 1267 1264 1262 1261 1259 1257 1256 1255 1254 1253 1251 1248 1243 1239 1238 1238 1237 1234 1230 1227 1226 1225 1223 1221 1218 1217 1215 1213 1212 1210 1209 1208 1207 1205 1204 1203 1202 1201 1201 1200 1199 1197 1196 1194 1193 1192 1190 1189 1189 1188 1187 1186 1186 1185 1185 1185 1184 1184 1184 1184 1183 1182
1319 1317 1315 1313 1311 1309 1306 1304 1302 1300 1299 1297 1295 1294 1292 1290 1287 1284 1280 1279 1277 1275 1273 1269 1266 1263 1260 1259 1257 1255 1254 1253 1251 1250 1249 1246 1242 1239 1236 1236 1234 1232 1229 1225 1222 1221 1220 1218 1215 1214 1212 1210 1209 1207 1205 1204 1204 1203 1202 1201 1200 1199 1198 1196 1195 1194 1192 1190 1189 1188 1186 1185 1185 1184 1183 1183 1182 1181 1181 1181 1181 1180 1180 1180 1179 1178
1316 1314 1312 1310 1308 1305 1303 1301 1299 1297 1295 1294 1292 1291 1290 1288 1285 1282 1279 1277 1275 1273 1270 1268 1265 1262 1259 1256 1254 1253 1251 1250 1249 1249 1247 1244 1241 1237 1235 1234 1232 1230 1227 1223 1219 1216 1216 1215 1213 1212 1210 1208 1206 1205 1203 1202 1201 1200 1199 1198 1197 1196 1194 1193 1191 1189 1188 1186 1185 1184 1183 1182 1181 1180 1179 1179 1178 1177 1177 1177 1177 1177 1176 1175 1174 1174
1313 1311 1308 1306 1304 1302 1300 1297 1295 1293 1292 1290 1289 1288 1287 1285 1283 1280 1277 1275 1274 1271 1268 1265 1263 1261 1258 1255 1252 1249 1248 1248 1248 1247 1246 1243 1239 1235 1234 1232 1230 1229 1227 1223 1217 1213 1210 1211 1211 1210 1209 1207 1204 1203 1201 1199 1198 1197 1196 1194 1193 1191 1190 1189 1187 1186 1184 1183 1182 1180 1179 1178 1177 1176 1175 1174 1173 1173 1172 1172 1173 1173 1172 1171 1170 1169
1310 1307 1305 1302 1300 1299 1297 1295 1292 1290 1289 1287 1286 1285 1283 1282 1280 1278 1275 1274 1271 1269 1266 1264 1261 1259 1257 1255 1252 1248 1245 1244 1244 1245 1244 1241 1236 1233 1232 1230 1228 1226 1226 1224 1219 1213 1207 1205 1206 1208 1207 1205 1202 1200 1198 1197 1196 1194 1193 1191 1189 1188 1186 1185 1184 1183 1181 1179 1178 1176 1175 1174 1172 1171 1170 1169 1168 1168 1167 1168 1168 1169 1168 1167 1167 1166
1307 1305 1302 1300 1298 1296 1294 1292 1290 1288 1286 1285 1283 1282 1280 1279 1277 1275 1273 1271 1269 1267 1265 1262 1259 1258 1256 1254 1251 1248 1244 1242 1241 1242 1242 1239 1234 1231 1230 1229 1226 1224 1223 1223 1221 1216 1210 1204 1202 1203 1204 1202 1199 1197 1196 1195 1194 1192 1190 1189 1187 1185 1184 1183 1181 1180 1178 1175 1174 1172 1170 1169 1167 1166 1165 1164 1164 1163 1163 1163 1164 1164 1164 1164 1163 1162
1305 1302 1300 1298 1295 1293 1292 1290 1288 1286 1284 1283 1281 1279 1278 1276 1274 1273 1271 1269 1267 1265 1263 1260 1258 1255 1253 1251 1249 1246 1243 1241 1239 1239 1239 1237 1233 1230 1228 1227 1224 1222 1220 1219 1218 1216 1212 1206 1202 1200 1199 1198 1197 1195 1194 1193 1192 1190 1189 1187 1185 1183 1181 1180 1178 1176 1174 1171 1169 1167 1166 1164 1163 1162 1161 1160 1160 1159 1159 1159 1159 1160 1160 1160 1159 1158
1302 1300 1297 1295 1293 1291 1290 1288 1286 1284 1282 1280 1279 1277 1275 1273 1272 1270 1268 1266 1264 1263 1261 1259 1256 1254 1251 1249 1246 1244 1241 1239 1238 1238 1237 1235 1232 1229 1226 1224 1223 1221 1219 1216 1215 1213 1210 1207 1204 1200 1197 1195 1194 1193 1192 1191 1190 1188 1187 1185 1183 1180 1178 1177 1175 1172 1170 1168 1166 1164 1162 1161 1160 1159 1158 1157 1156 1155 1155 1155 1155 1156 1156 1156 1155 1155
1300 1297 1295 1293 1291 1290 1287 1285 1284 1282 1280 1278 1276 1274 1273 1271 1269 1267 1265 1264 1262 1260 1259 1257 1254 1252 1250 1247 1244 1241 1239 1237 1236 1236 1235 1233 1230 1227 1224 1223 1221 1219 1217 1214 1212 1210 1208 1204 1203 1201 1197 1194 1191 1190 1190 1189 1188 1186 1184 1183 1180 1178 1176 1174 1172 1169 1167 1165 1163 1161 1159 1158 1157 1155 1154 1153 1152 1152 1152 1151 1152 1152 1152 1152 1152 1152
1298 1295 1294 1292 1290 1288 1285 1284 1282 1280 1278 1276 1274 1272 1270 1269 1267 1265 1263 1261 1259 1257 1256 1254 1252 1250 1248 1246 1243 1240 1237 1234 1234 1233 1232 1231 1229 1226 1223 1221 1219 1218 1216 1213 1210 1208 1205 1203 1200 1199 1197 1194 1190 1188 1188 1187 1186 1184 1182 1179 1178 1175 1173 1171 1169 1167 1164 1162 1160 1159 1157 1155 1154 1152 1151 1150 1149 1149 1149 1148 1148 1148 1148 1148 1148 1148
1296 1294 1292 1290 1289 1286 1284 1282 1280 1278 1276 1274 1272 1270 1268 1266 1264 1262 1260 1258 1256 1254 1253 1250 1249 1247 1245 1244 1241 1239 1236 1233 1232 1230 1229 1228 1227 1224 1222 1219 1217 1216 1214 1212 1209 1206 1204 1201 1199 1197 1195 1193 1190 1188 1186 1184 1183 1181 1179 1177 1174 1172 1169 1168 1166 1164 1162 1160 1159 1157 1155 1153 1151 1150 1148 1148 1147 1146 1146 1145 1145 1144 1144 1144 1143 1143
1295 1293 1291 1289 1287 1285 1283 1280 1278 1276 1274 1272 1270 1268 1266 1264 1262 1260 1258 1255 1254 1252 1250 1248 1245 1244 1242 1240 1239 1236 1234 1232 1230 1228 1227 1225 1224 1223 1220 1217 1215 1214 1213 1210 1208 1206 1203 1201 1198 1196 1194 1191 1189 1188 1185 1183 1181 1178 1176 1174 1172 1169 1167 1165 1164 1162 1160 1159 1157 1155 1153 1151 1149 1148 1147 1146 1145 1144 1144 1143 1142 1142 1141 1140 1139 1139
1294 1291 1289 1287 1285 1283 1281 1279 1276 1274 1272 1270 1268 1265 1264 1261 1259 1257 1255 1253 1251 1249 1247 1245 1243 1241 1239 1237 1235 1233 1231 1229 1228 1226 1224 1223 1222 1220 1219 1216 1213 1211 1210 1209 1207 1205 1203 1201 1198 1196 1193 1190 1188 1185 1184 1182 1180 1177 1174 1171 1169 1166 1165 1163 1162 1160 1159 1157 1155 1153 1151 1149 1148 1147 1146 1145 1144 1143 1142 1141 1140 1139 1138 1138 1136 1135
1292 1290 1288 1286 1284 1282 1279 1277 1275 1273 1270 1268 1266 1264 1261 1259 1257 1255 1253 1251 1249 1247 1245 1243 1240 1238 1236 1234 1232 1230 1229 1227 1225 1224 1222 1221 1219 1218 1216 1214 1212 1209 1208 1207 1206 1204 1202 1199 1197 1194 1193 1190 1187 1184 1182 1180 1179 1177 1174 1171 1167 1164 1162 1161 1160 1158 1157 1155 1153 1151 1149 1148 1147 1146 1145 1144 1143 1141 1140 1139 1138 1137 1136 1134 1134 1133
1291 1288 1286 1284 1281 1279 1278 1275 1273 1271 1269 1266 1264 1262 1259 1257 1255 1253 1250 1248 1246 1244 1242 1240 1238 1235 1233 1231 1229 1228 1226 1224 1223 1222 1220 1219 1218 1216 1214 1213 1210 1208 1207 1205 1203 1201 1199 1197 1195 1193 1191 1189 1186 1184 1181 1179 1178 1176 1174 1171 1167 1164 1161 1159 1159 1157 1155 1154 1152 1151 1149 1148 1146 1145 1144 1142 1141 1139 1138 1137 1136 1134 1134 1132 1131 1130
1290 1287 1285 1282 1280 1278 1275 1273 1271 1269 1267 1265 1263 1260 1258 1256 1254 1251 1249 1246 1244 1242 1240 1238 1236 1233 1230 1228 1227 1225 1224 1223 1221 1220 1219 1218 1216 1214 1213 1211 1210 1208 1206 1204 1201 1198 1197 1195 1193 1191 1189 1187 1185 1183 1180 1178 1177 1175 1174 1171 1168 1164 1160 1159 1158 1157 1155 1153 1152 1150 1149 1148 1146 1145 1143 1141 1140 1138 1137 1136 1134 1134 1132 1131 1130 1129
1288 1285 1283 1280 1278 1276 1274 1272 1269 1267 1265 1263 1261 1259 1257 1254 1253 1250 1248 1245 1243 1240 1239 1236 1234 1232 1229 1226 1224 1223 1222 1220 1219 1219 1217 1216 1214 1212 1211 1210 1208 1206 1204 1201 1198 1195 1193 1192 1191 1189 1187 1186 1184 1183 1180 1178 1176 1174 1172 1170 1168 1165 1161 1158 1156 1156 1154 1153 1151 1150 1149 1148 1146 1145 1143 1141 1139 1138 1136 1135 1134 1133 1132 1130 1129 1129
1286 1284 1281 1279 1277 1274 1272 1270 1268 1266 1264 1262 1259 1257 1255 1253 1251 1249 1247 1244 1241 1239 1237 1234 1232 1230 1228 1225 1223 1221 1219 1218 1217 1217 1215 1214 1212 1211 1209 1208 1205 1203 1201 1199 1196 1193 1191 1189 1188 1187 1186 1185 1184 1182 1180 1178 1175 1173 1171 1169 1168 1166 1164 1160 1158 1156 1154 1153 1152 1150 1149 1148 1147 1145 1143 1141 1139 1138 1136 1135 1133 1132 1131 1130 1129 1129
1285 1282 1280 1278 1275 1273 1271 1269 1266 1264 1262 1260 1258 1255 1253 1251 1249 1248 1245 1243 1240 1238 1236 1234 1232 1229 1227 1224 1222 1219 1218 1216 1215 1214 1213 1212 1210 1209 1207 1205 1202 1200 1198 1195 1194 1192 1190 1188 1187 1186 1185 1184 1183 1181 1180 1178 1175 1173 1170 1169 1167 1166 1164 1161 1159 1157 1155 1154 1152 1151 1150 1149 1147 1145 1143 1142 1140 1138 1136 1135 1133 1132 1131 1130 1129 1129
1283 1281 1279 1276 1274 1272 1269 1267 1265 1263 1261 1259 1256 1254 1252 1250 1248 1246 1244 1242 1239 1237 1235 1233 1231 1229 1226 1223 1221 1219 1217 1215 1214 1212 1211 1209 1208 1206 1204 1202 1200 1198 1195 1193 1191 1190 1189 1188 1186 1185 1184 1183 1182 1181 1179 1178 1175 1173 1170 1169 1167 1165 1163 1161 1160 1158 1157 1155 1154 1152 1151 1149 1147 1146 1144 1143 1141 1139 1137 1135 1134 1132 1131 1130 1129 1129
1282 1280 1277 1275 1273 1270 1268 1266 1264 1262 1259 1257 1254 1253 1250 1249 1246 1244 1243 1240 1239 1236 1234 1232 1230 1228 1225 1223 1220 1219 1217 1214 1213 1211 1209 1207 1206 1204 1202 1200 1198 1196 1194 1192 1190 1189 1188 1187 1186 1185 1184 1183 1182 1180 1179 1177 1175 1174 1171 1169 1167 1165 1163 1162 1160 1159 1158 1157 1155 1154 1152 1150 1148 1147 1145 1144 1142 1140 1138 1136 1134 1133 1132 1130 1129 1129
1281 1279 1276 1274 1271 1269 1267 1264 1263 1260 1258 1255 1253 1251 1249 1247 1245 1244 1241 1239 1237 1235 1233 1230 1228 1226 1224 1222 1220 1219 1217 1215 1213 1210 1208 1206 1204 1202 1200 1198 1196 1194 1193 1191 1190 1189 1188 1187 1186 1185 1184 1183 1182 1180 1178 1177 1175 1174 1172 1169 1168 1166 1164 1163 1161 1160 1159 1158 1156 1155 1153 1151 1149 1148 1147 1145 1143 1141 1139 1138 1136 1134 1133 1132 1131 1129
1280 1277 1275 1273 1270 1268 1265 1263 1261 1259 1257 1254 1252 1249 1248 1246 1244 1243 1240 1238 1236 1234 1232 1229 1227 1225 1223 1221 1219 1218 1217 1215 1213 1210 1208 1206 1204 1202 1199 1197 1195 1194 1192 1191 1190 1189 1188 1187 1186 1185 1184 1183 1182 1180 1179 1177 1175 1174 1172 1170 1169 1168 1166 1164 1163 1162 1160 1159 1158 1156 1154 1152 1151 1149 1148 1146 1144 1143 1141 1140 1138 1136 1135 1134 1132 1131
1279 1276 1274 1272 1269 1267 1264 1262 1260 1258 1255 1253 1251 1248 1246 1244 1242 1241 1239 1237 1235 1233 1231 1229 1227 1225 1223 1221 1219 1218 1216 1214 1212 1209 1207 1206 1204 1202 1199 1198 1195 1194 1192 1191 1190 1189 1188 1187 1186 1185 1185 1184 1183 1182 1180 1178 1176 1174 1173 1171 1170 1169 1168 1166 1164 1163 1162 1160 1159 1157 1155 1154 1152 1150 1149 1148 1146 1145 1143 1142 1140 1139 1138 1136 1134 1133
1277 1275 1273 1271 1269 1266 1264 1261 1259 1257 1255 1252 1250 1248 1245 1243 1241 1239 1237 1235 1234 1232 1230 1228 1226 1225 1223 1221 1219 1217 1215 1214 1211 1209 1207 1206 1204 1202 1200 1198 1196 1194 1193 1191 1190 1189 1188 1187 1187 1186 1185 1184 1184 1183 1181 1179 1177 1175 1174 1173 1172 1170 1169 1168 1166 1165 1164 1162 1161 1159 1157 1155 1154 1152 1150 1149 1148 1146 1145 1144 1144 1142 1141 1139 1138 1136